Satellite: MET-3/5
Catalog number: 21655
Epoch time:      10077.62527986
Element set:     763
Inclination:      082.5617 deg
RA of node:       012.6145 deg
Eccentricity:    0.0012569
Arg of perigee:   211.4713 deg
Mean anomaly:     148.5689 deg
Mean motion:   13.17023280 rev/day
Decay rate:        5.1e-07 rev/day^2
Epoch rev:           89375
Checksum:              310

Satellite: MET-2/21
Catalog number: 22782
Epoch time:      10077.68253293
Element set:     724
Inclination:      082.5507 deg
RA of node:       324.2564 deg
Eccentricity:    0.0021057
Arg of perigee:   298.9282 deg
Mean anomaly:     060.9767 deg
Mean motion:   13.83643485 rev/day
Decay rate:       -3.0e-08 rev/day^2
Epoch rev:           83556
Checksum:              323

Satellite: OKEAN-4
Catalog number: 23317
Epoch time:      10077.76175713
Element set:     181
Inclination:      082.5363 deg
RA of node:       078.2575 deg
Eccentricity:    0.0022000
Arg of perigee:   175.2871 deg
Mean anomaly:     184.8582 deg
Mean motion:   14.82781671 rev/day
Decay rate:       2.38e-06 rev/day^2
Epoch rev:           83305
Checksum:              301

Satellite: NOAA-14
Catalog number: 23455
Epoch time:      10077.34211845
Element set:     987
Inclination:      098.8814 deg
RA of node:       158.7050 deg
Eccentricity:    0.0009977
Arg of perigee:   129.8194 deg
Mean anomaly:     230.3877 deg
Mean motion:   14.13780469 rev/day
Decay rate:       -4.2e-07 rev/day^2
Epoch rev:           78466
Checksum:              343

Satellite: NOAA-15
Catalog number: 25338
Epoch time:      10077.42447924
Element set:     307
Inclination:      098.6123 deg
RA of node:       066.0053 deg
Eccentricity:    0.0010415
Arg of perigee:   344.5874 deg
Mean anomaly:     015.5000 deg
Mean motion:   14.24813327 rev/day
Decay rate:       1.91e-06 rev/day^2
Epoch rev:           61582
Checksum:              272

Satellite: RESURS
Catalog number: 25394
Epoch time:      10077.57830392
Element set:     456
Inclination:      098.3123 deg
RA of node:       100.5639 deg
Eccentricity:    0.0002246
Arg of perigee:   109.4218 deg
Mean anomaly:     250.7207 deg
Mean motion:   14.24195653 rev/day
Decay rate:        1.0e-07 rev/day^2
Epoch rev:           60745
Checksum:              275

Satellite: FENGYUN1
Catalog number: 25730
Epoch time:      10077.78582497
Element set:     998
Inclination:      098.7798 deg
RA of node:       045.1123 deg
Eccentricity:    0.0023716
Arg of perigee:   159.8507 deg
Mean anomaly:     200.3599 deg
Mean motion:   14.08190786 rev/day
Decay rate:       4.76e-06 rev/day^2
Epoch rev:           55896
Checksum:              358

Satellite: OKEAN-0
Catalog number: 25860
Epoch time:      10077.42935425
Element set:     941
Inclination:      097.8224 deg
RA of node:       053.2597 deg
Eccentricity:    0.0001626
Arg of perigee:   058.4957 deg
Mean anomaly:     301.6414 deg
Mean motion:   14.73622315 rev/day
Decay rate:        8.4e-07 rev/day^2
Epoch rev:           57353
Checksum:              299

Satellite: NOAA-16
Catalog number: 26536
Epoch time:      10077.41878707
Element set:     784
Inclination:      099.1760 deg
RA of node:       092.7284 deg
Eccentricity:    0.0009929
Arg of perigee:   229.2025 deg
Mean anomaly:     130.8286 deg
Mean motion:   14.12549750 rev/day
Decay rate:      -1.43e-06 rev/day^2
Epoch rev:           48901
Checksum:              327

Satellite: NOAA-17
Catalog number: 27453
Epoch time:      10077.36440584
Element set:     788
Inclination:      098.4424 deg
RA of node:       131.4199 deg
Eccentricity:    0.0012473
Arg of perigee:   046.4123 deg
Mean anomaly:     313.8064 deg
Mean motion:   14.24139955 rev/day
Decay rate:        2.8e-07 rev/day^2
Epoch rev:           40177
Checksum:              305

Satellite: NOAA-18
Catalog number: 28654
Epoch time:      10077.41489666
Element set:     273
Inclination:      098.9411 deg
RA of node:       023.9790 deg
Eccentricity:    0.0013714
Arg of perigee:   312.3518 deg
Mean anomaly:     047.6488 deg
Mean motion:   14.11336629 rev/day
Decay rate:       1.17e-06 rev/day^2
Epoch rev:           24863
Checksum:              321

Satellite: NOAA-19
Catalog number: 33591
Epoch time:      10077.45410391
Element set:     472
Inclination:      098.7815 deg
RA of node:       021.5399 deg
Eccentricity:    0.0013979
Arg of perigee:   182.8986 deg
Mean anomaly:     177.2084 deg
Mean motion:   14.11036086 rev/day
Decay rate:       3.00e-06 rev/day^2
Epoch rev:            5711
Checksum:              310

/EX
SB KEPS @ AMSAT  $ORB10077.M
Orbital Elements  10077.MISC

HR AMSAT ORBITAL ELEMENTS FOR MANNED AND MISCELLANEOUS SATELLITES
FROM WA5QGD FORT WORTH,TX March 18, 2010
Send Subscribe/unsubscribe to KEPS at http://www.amsat.org/mailman/listinfo/kep
BID: ORB10077.M
TO ALL RADIO AMATEURS BT

Satellite: HUBBLE
Catalog number: 20580
Epoch time:      10077.15135467
Element set:     537
Inclination:      028.4686 deg
RA of node:       114.1449 deg
Eccentricity:    0.0003251
Arg of perigee:   309.5084 deg
Mean anomaly:     050.5268 deg
Mean motion:   15.00922806 rev/day
Decay rate:       6.13e-06 rev/day^2
Epoch rev:           89106
Checksum:              277

